RH
19 17 22 19 14 10 9 7 5 6 7 7 8 8 8 8 8 12 16 40 60 64 65 48 42 40 42 46 44 42 40 37 41 51 61 58 63 65 61 57 52 48 46 48 51 52 54 56 59
30 21 20 16 14 11 8 6 7 6 7 9 9 8 8 9 11 16 22 34 47 63 70 53 46 45 44 46 42 42 39 38 43 56 62 61 64 68 65 61 57 53 52 53 52 53 54 56 61
27 22 17 12 13 12 8 7 7 6 9 8 8 10 11 11 13 19 28 44 53 58 69 80 49 50 52 46 44 43 40 39 43 53 61 63 66 69 69 65 62 59 58 61 58 58 56 58 60
21 18 16 15 14 10 9 8 8 7 8 9 8 9 10 15 20 22 33 45 64 63 69 81 53 53 58 50 48 46 43 42 44 54 63 66 68 70 71 69 66 63 64 67 66 63 62 59 62
22 16 16 14 13 10 8 9 9 9 8 9 9 10 10 14 16 20 31 48 69 74 72 78 52 54 53 54 52 47 45 44 44 49 59 66 69 68 69 70 66 66 68 70 67 66 64 58 63
16 14 17 15 12 9 8 10 11 10 10 10 10 11 11 13 15 19 31 52 75 85 82 83 55 49 53 58 55 50 48 48 46 48 54 59 62 61 64 68 65 65 65 70 70 67 64 60 61
17 14 17 15 13 11 10 10 12 11 11 11 11 15 14 14 18 18 25 45 74 92 95 94 71 53 58 60 60 56 54 54 51 51 52 52 53 55 60 64 64 66 65 69 68 67 62 64 63
15 13 16 14 14 12 9 10 12 12 11 16 16 15 14 14 19 17 18 29 60 90 100 99 98 57 58 62 62 59 59 60 57 57 57 56 56 57 60 67 69 69 68 69 68 67 66 65 67
18 15 17 15 13 11 10 11 11 12 16 14 16 16 16 18 17 15 17 21 45 84 96 98 100 99 61 76 68 65 65 65 63 64 64 63 62 60 61 65 68 68 70 67 70 73 75 69 74
17 18 16 12 11 11 10 10 12 12 13 14 13 14 16 16 16 16 17 17 25 61 84 96 100 92 72 95 100 79 69 70 69 69 69 70 70 94 95 87 72 70 70 69 71 80 81 75 88
17 20 14 12 12 13 12 11 10 10 13 12 13 14 15 15 16 16 17 16 17 34 69 85 98 97 77 71 79 90 98 96 89 78 92 84 94 92 95 89 91 80 75 76 75 78 87 91 94
18 15 13 13 13 12 13 14 12 12 12 12 12 13 13 14 15 16 15 15 17 18 36 69 84 98 99 99 92 95 96 97 91 93 96 92 93 85 82 78 88 92 97 96 98 89 93 96 97
16 14 14 11 11 12 11 10 10 10 11 12 12 13 14 15 15 15 14 14 16 18 20 28 57 80 94 99 93 97 98 93 61 87 81 86 83 82 80 78 78 90 90 98 94 89 85 92 96
14 12 13 14 12 13 12 12 12 12 13 12 12 13 14 14 14 15 15 16 22 27 27 34 30 53 73 84 96 95 94 91 95 93 55 54 57 70 86 80 79 79 92 90 93 95 92 94 94
17 17 14 13 14 15 14 15 15 13 12 13 13 15 14 14 15 15 20 27 30 34 37 47 51 34 54 74 82 87 90 92 82 86 95 34 44 47 90 95 93 86 82 85 90 88 95 99 96
21 20 23 17 14 13 15 21 12 12 13 14 13 13 14 15 16 20 35 35 36 40 49 56 58 63 45 32 66 77 77 89 88 79 88 69 35 41 55 91 94 97 75 87 90 96 86 96 100
28 31 25 20 14 15 15 20 13 13 14 13 12 13 14 15 19 34 40 39 44 44 54 59 63 66 72 46 29 54 74 78 82 83 81 94 70 74 40 73 54 78 83 90 100 93 90 94 98
39 34 25 24 16 16 17 19 14 12 13 12 13 13 14 16 23 38 40 46 50 53 59 59 61 64 73 71 49 34 54 70 75 76 81 88 90 63 68 64 46 55 71 89 86 96 98 97 97
30 31 32 19 14 17 18 16 13 12 12 11 13 15 15 21 32 36 46 51 56 58 62 67 70 72 69 69 67 58 49 51 67 74 76 83 98 98 94 92 93 52 50 83 80 100 100 99 98
35 32 33 27 19 17 18 16 12 10 10 12 13 14 20 30 32 41 46 51 60 64 72 77 77 79 80 78 76 76 68 53 54 64 75 82 94 100 98 98 95 55 49 84 91 100 96 100 98
58 47 33 42 35 19 18 17 15 13 12 13 14 18 30 34 38 42 46 52 59 64 76 82 86 83 87 93 91 85 80 69 51 73 74 82 89 90 72 60 97 53 49 61 66 92 87 98 94
76 43 32 38 32 29 16 29 17 14 15 15 21 30 33 40 43 45 50 53 58 62 76 86 94 90 95 99 99 99 92 73 47 51 67 83 86 93 99 82 100 87 59 63 56 71 99 99 83
63 40 45 41 30 26 25 27 18 13 17 21 25 31 41 47 48 50 52 56 58 66 77 89 97 97 98 98 95 97 99 97 79 56 61 66 86 91 100 100 100 70 92 68 84 100 99 98 94
59 63 42 37 32 46 42 30 22 19 15 20 27 38 48 50 50 52 53 57 60 70 83 95 100 99 99 99 100 98 98 99 94 70 68 70 84 84 96 99 98 86 77 66 65 50 94 88 81
65 87 81 77 70 61 25 28 28 19 14 21 36 43 51 52 52 52 54 60 67 75 87 100 100 99 100 99 100 100 100 99 99 97 78 71 86 88 91 98 100 94 77 61 38 30 88 98 96
59 70 63 75 66 50 30 39 50 36 38 45 47 50 52 50 52 55 59 65 73 80 93 100 100 98 100 100 99 100 100 99 99 98 83 85 93 78 82 98 99 100 97 73 60 42 97 92 96
63 57 36 46 42 44 52 49 56 50 51 45 47 48 48 49 54 58 62 69 77 86 97 98 100 98 97 100 98 100 100 100 99 92 84 91 95 89 81 99 99 100 100 99 88 92 94 88 92
33 36 47 50 68 46 34 40 50 65 51 42 40 43 44 46 52 60 63 70 78 88 97 98 100 97 95 100 100 100 98 100 100 90 87 94 84 94 83 92 98 98 96 91 94 90 98 99 98
30 62 53 58 53 54 48 60 63 59 44 42 40 43 45 49 56 60 66 71 79 88 95 100 100 99 91 91 98 99 99 98 100 96 89 95 92 92 93 98 100 98 98 89 64 51 87 98 99
26 27 41 75 53 65 44 54 51 43 42 35 35 40 45 54 59 64 68 72 80 89 96 100 100 98 100 96 94 98 98 100 99 88 97 93 88 83 92 92 95 98 99 75 67 68 66 91 99
Wind_Speed
5 3 5 8 7 7 15 14 4 5 6 3 1 6 10 12 8 4 10 14 13 1 16 19 26 25 23 21 20 18 17 17 17 18 19 20 19 16 13 12 12 12 12 12 12 11 11 11 11
3 6 6 12 8 13 14 6 6 4 10 1 3 6 10 6 2 7 8 18 10 3 11 19 27 26 24 22 21 20 18 17 17 18 20 21 19 15 13 13 13 13 12 11 11 11 11 11 11
6 8 13 6 14 15 14 9 8 8 3 4 4 4 3 2 2 6 12 15 9 5 10 15 27 26 25 23 22 20 18 17 17 18 21 21 20 17 15 14 14 14 13 11 11 11 11 11 10
4 6 11 10 20 18 12 6 3 4 8 7 5 7 5 4 3 7 12 14 9 5 10 18 24 27 26 24 22 20 18 17 17 18 20 21 19 18 17 16 15 15 14 12 11 12 11 11 11
8 11 11 16 21 20 16 5 6 10 10 8 9 12 11 8 3 9 12 12 8 4 9 19 22 28 27 25 23 21 20 18 18 18 19 20 20 19 18 17 16 15 15 13 12 13 13 13 12
12 9 13 15 19 17 11 5 13 14 14 16 16 15 15 7 6 9 12 11 8 6 10 16 23 28 28 25 24 23 21 20 18 18 19 20 20 20 19 19 17 17 17 15 14 13 14 14 14
16 12 16 19 21 20 16 5 11 13 14 14 11 7 8 5 4 10 11 10 9 6 10 14 18 27 28 26 25 24 23 21 19 19 19 19 20 20 20 21 20 19 18 17 16 15 15 16 16
18 12 22 19 19 20 12 4 11 13 15 2 3 7 13 7 8 12 11 10 8 7 11 14 15 25 29 28 27 26 25 22 20 20 19 19 20 20 21 21 21 21 19 18 17 16 15 15 17
10 10 15 21 21 19 10 6 16 8 11 11 12 15 12 15 15 12 11 9 7 7 9 14 17 22 28 25 28 28 26 24 23 22 21 21 21 21 22 23 23 22 22 19 18 17 16 16 17
19 14 22 20 14 16 13 14 15 16 14 15 18 17 16 13 13 11 10 10 8 7 10 12 17 23 26 22 19 27 28 26 25 24 24 23 22 18 19 21 25 24 24 22 20 19 19 18 18
19 22 20 20 15 16 21 21 19 18 18 19 20 18 15 15 13 13 12 11 8 6 7 9 13 15 22 26 29 23 20 21 23 25 23 22 18 17 18 17 23 26 27 26 24 23 23 21 18
24 27 25 24 22 18 19 23 22 23 21 21 20 18 17 16 14 14 13 11 9 7 5 7 10 12 16 17 19 20 22 24 21 21 23 22 21 20 20 20 20 21 22 24 22 22 21 22 21
24 22 26 24 22 26 23 23 23 25 23 22 18 17 15 15 13 12 12 9 9 6 5 7 7 11 12 16 18 19 21 24 28 28 29 26 23 24 22 20 21 20 23 22 23 24 22 22 23
27 20 22 28 24 23 23 24 25 21 18 19 18 16 15 12 11 9 9 8 6 6 5 5 7 10 13 14 17 18 20 21 23 23 31 35 35 31 23 23 22 21 21 25 23 22 22 25 23
28 29 25 25 25 23 17 23 24 27 21 20 18 17 15 11 9 9 5 8 7 6 6 6 7 7 18 16 18 19 20 21 22 24 30 33 36 35 26 28 29 22 19 25 26 26 26 23 23
24 23 23 20 25 28 21 24 19 14 20 20 16 15 12 12 6 6 6 5 6 7 8 8 8 9 11 16 19 21 22 24 23 26 28 31 35 37 36 26 30 27 23 26 29 27 28 24 21
20 22 25 22 19 13 23 18 24 14 11 15 17 13 14 9 8 5 3 4 6 8 9 10 10 10 12 16 19 22 26 27 27 26 30 31 32 34 37 35 35 29 25 30 32 30 28 27 21
21 26 26 24 20 17 20 21 19 13 18 16 16 16 14 9 8 2 3 4 6 9 13 14 14 14 15 17 20 23 24 30 33 31 32 32 34 34 36 39 38 35 31 30 32 33 28 29 24
27 25 30 25 17 14 16 20 17 17 21 20 17 17 12 10 4 2 2 5 7 10 13 15 17 17 17 18 18 20 22 27 32 35 35 35 33 33 35 35 35 37 35 31 32 30 29 30 26
27 28 28 24 22 12 18 22 20 20 19 19 18 14 11 8 6 1 4 8 10 12 13 15 16 18 18 19 20 21 23 27 29 34 34 37 36 35 36 37 38 38 35 32 32 34 29 27 27
23 27 24 22 25 22 19 24 21 19 19 19 10 13 11 7 2 3 8 10 12 14 15 16 17 19 20 21 22 23 24 29 35 27 34 33 36 43 45 38 44 40 37 37 36 37 32 30 27
20 24 21 25 21 17 22 17 19 23 10 11 15 15 13 6 2 6 10 13 15 16 17 18 19 20 19 20 22 22 25 28 29 35 31 34 39 39 41 44 46 40 37 37 36 36 32 26 31
19 18 23 27 22 21 19 10 13 18 18 17 16 15 10 4 4 8 11 14 15 17 19 21 21 21 20 21 24 28 27 27 28 36 33 34 36 40 41 45 45 43 37 37 31 25 29 30 28
12 13 18 20 18 16 21 18 13 13 17 19 17 14 6 3 6 9 11 14 15 17 19 21 22 23 22 24 25 28 29 30 29 32 33 34 37 39 43 41 45 43 41 36 33 29 42 34 29
18 8 4 5 8 11 15 12 19 5 8 18 17 14 4 5 8 10 13 15 17 19 21 22 23 26 26 27 26 25 27 29 33 34 38 34 35 38 41 45 47 47 40 39 35 29 42 38 31
26 19 6 5 5 8 12 6 7 9 18 16 14 9 4 7 9 11 15 17 20 22 24 25 27 29 29 29 26 23 24 29 34 36 39 31 33 34 34 41 45 46 44 50 44 39 44 38 34
10 21 24 15 16 10 7 10 10 9 9 10 10 5 7 9 11 14 15 18 20 23 24 26 29 30 29 30 28 22 17 20 27 26 34 33 30 30 28 37 38 39 36 33 32 36 38 38 34
16 14 16 7 5 10 11 16 8 14 11 10 9 8 9 11 14 15 17 20 21 22 24 26 26 29 29 31 26 21 11 12 15 25 30 30 36 29 28 30 36 41 38 33 34 30 29 35 32
12 9 6 6 8 6 11 2 6 12 11 9 7 8 10 11 13 15 17 19 20 22 23 26 28 30 30 28 29 20 11 11 11 15 22 25 27 28 26 31 36 33 42 36 32 26 27 29 30
9 10 4 3 6 7 9 1 7 11 10 3 5 5 7 10 12 14 16 18 21 23 24 26 31 31 30 26 26 22 16 9 12 16 18 21 30 30 28 28 28 30 36 33 34 25 38 32 35
Wind_Direction
214 243 277 259 246 227 266 266 24 173 198 91 293 265 342 329 316 353 3 7 0 304 239 213 200 197 196 197 198 198 200 195 195 202 206 201 201 200 198 194 192 188 186 184 189 191 196 197 196
191 232 237 267 255 255 250 250 156 249 72 234 252 253 242 255 296 311 344 335 334 309 220 210 200 200 202 201 201 199 203 198 194 201 205 204 206 209 207 203 201 195 196 195 196 198 203 200 202
161 218 261 235 245 257 273 69 6 79 164 228 253 224 311 252 230 327 327 334 327 273 218 214 200 202 206 205 204 202 203 199 196 199 202 204 210 213 213 209 208 208 205 203 204 207 211 209 212
184 210 252 253 261 271 270 300 315 184 203 239 260 266 193 211 291 326 335 338 325 265 216 222 204 204 205 207 208 205 204 202 200 202 206 207 213 217 217 214 214 214 213 210 213 216 218 219 217
221 251 250 250 259 269 274 296 251 262 267 254 261 267 246 216 243 325 335 336 317 248 198 217 214 209 205 207 211 209 208 206 205 206 207 211 216 220 220 218 217 218 222 222 220 222 222 222 221
233 254 249 257 264 262 249 278 276 245 252 257 258 253 260 234 259 316 324 332 309 235 207 235 221 211 205 206 212 214 212 210 209 210 211 214 218 221 222 221 221 221 225 228 230 226 228 225 224
244 256 255 278 281 278 288 245 280 261 258 260 254 250 260 209 256 314 311 321 312 262 219 211 237 210 206 207 211 215 216 215 214 215 214 216 220 222 223 221 223 224 228 231 234 233 229 227 226
242 257 267 263 269 275 304 246 246 265 271 25 243 243 244 226 320 311 299 295 302 270 225 218 226 212 209 210 212 214 216 217 218 219 219 219 222 224 224 223 223 225 232 238 238 237 232 231 230
239 245 249 255 264 273 299 278 272 258 286 251 242 250 270 284 295 291 289 280 286 275 254 216 215 212 208 213 216 216 217 217 219 221 220 222 223 225 223 223 226 226 231 234 242 241 235 232 232
231 232 245 264 297 290 279 260 255 274 243 254 255 253 267 268 281 275 274 267 285 272 254 242 229 225 213 200 214 221 220 220 221 223 224 222 221 222 218 227 226 227 231 233 235 238 237 234 235
241 246 269 273 271 266 277 270 269 266 263 260 267 270 268 268 269 266 270 261 266 278 250 231 231 231 223 221 215 213 214 221 225 223 219 225 219 219 230 224 239 230 229 232 229 231 234 233 225
250 257 269 274 274 257 254 268 265 263 268 271 273 268 266 264 257 259 258 256 261 260 249 238 224 230 227 221 231 230 217 220 213 225 222 216 217 217 219 218 229 231 224 227 226 229 232 231 230
257 256 263 270 255 263 261 259 263 263 264 264 265 259 258 255 258 254 252 256 260 261 258 241 239 232 232 227 229 230 230 231 235 227 218 210 217 213 216 222 222 228 218 223 225 233 233 231 230
273 283 267 265 256 255 256 260 255 250 255 252 251 251 245 245 245 252 250 250 269 277 276 277 245 218 244 236 234 233 232 235 235 229 239 232 225 221 210 218 223 220 224 225 224 222 232 228 228
274 269 271 251 256 253 256 255 249 252 239 250 242 240 239 236 232 251 252 261 273 285 290 301 309 274 221 236 242 242 237 237 230 231 233 240 234 231 219 221 215 212 229 228 226 227 226 232 227
268 266 262 259 243 239 233 257 259 227 222 231 230 216 220 237 234 244 248 271 285 298 306 310 302 291 274 243 233 247 245 240 236 228 235 241 235 233 226 227 225 228 210 229 226 226 229 228 231
252 258 261 258 244 243 215 251 237 188 213 228 228 233 233 221 229 210 276 295 308 310 319 320 315 308 288 270 256 238 246 241 238 234 231 238 236 229 232 223 235 223 215 227 223 224 221 223 223
249 246 248 248 247 205 229 230 264 227 208 216 231 235 234 226 214 223 287 321 329 327 324 319 313 303 297 289 275 264 239 246 238 236 234 235 241 233 229 231 235 230 227 226 229 232 231 229 229
255 266 274 282 243 227 239 253 239 214 235 238 227 230 226 212 186 190 338 352 350 339 332 325 313 304 298 289 281 268 262 250 245 240 235 234 235 234 225 225 230 228 231 227 230 225 229 230 226
274 258 250 264 284 247 252 253 254 241 235 235 230 200 192 184 188 137 0 355 351 343 334 327 321 312 300 287 280 270 262 251 249 244 244 237 233 233 234 225 226 231 230 222 222 223 222 222 226
269 266 258 253 280 277 262 261 248 237 225 228 211 165 157 175 181 353 354 349 342 340 335 328 321 313 306 293 287 279 270 262 237 239 239 238 237 236 238 237 231 230 232 228 224 229 225 222 222
250 262 267 276 256 248 238 252 256 211 185 177 159 163 159 147 48 4 350 345 338 332 332 328 321 316 310 297 288 278 262 258 251 241 239 241 231 235 234 228 223 229 228 226 227 228 220 220 221
253 251 261 240 259 263 246 258 263 165 177 184 160 155 132 112 31 5 352 343 336 331 329 327 324 320 313 302 290 281 269 259 255 241 241 237 237 232 229 231 228 229 221 223 218 218 226 226 225
270 305 243 250 245 239 242 252 254 178 187 174 145 128 120 64 23 2 350 340 333 331 330 328 325 322 317 308 297 280 268 260 243 247 241 230 236 240 233 229 227 230 221 218 210 240 250 230 224
226 243 223 221 218 246 229 232 234 168 151 155 134 119 113 41 23 0 354 348 342 338 337 332 329 327 325 320 307 287 274 260 249 242 241 235 234 239 240 229 224 231 225 214 229 261 238 225 225
204 197 224 213 211 244 274 248 95 46 78 87 88 104 82 38 17 3 356 351 345 341 338 335 335 337 333 326 314 298 281 265 254 241 239 240 232 246 246 230 226 236 228 221 237 219 216 223 228
213 213 224 266 288 272 177 131 109 118 117 119 104 90 58 31 8 358 356 353 349 345 342 338 337 337 339 336 323 317 297 272 255 238 236 228 231 238 249 226 230 220 213 221 218 217 224 231 227
220 239 225 210 257 237 210 191 167 163 159 129 100 69 32 9 359 355 355 354 352 349 346 342 337 340 347 344 332 323 317 273 256 236 224 224 232 232 238 228 232 220 222 219 212 214 226 222 222
219 200 244 234 293 288 262 94 84 151 118 115 97 49 18 360 355 351 353 354 351 351 352 347 343 347 348 352 341 330 314 286 262 235 238 227 230 229 222 214 212 234 223 211 210 234 244 234 224
275 286 256 264 215 239 281 307 123 112 108 76 49 27 7 358 353 353 355 354 354 354 354 351 352 353 353 355 353 339 338 323 267 249 240 242 234 231 217 225 232 214 215 208 221 243 256 248 240